Regional Weather Roundup
Issued by NWS

Home | Current Version | Previous Version | Graphics & Text | Print | Product List | Glossary On
Versions: 1 2 3 4 5 6 7 8 9 10 11 12 13 14 15 16 17 18 19 20 21 22 23 24 25 26 27 28
000
ASUS45 KSLC 210310
RWRUT

UTAH REGIONAL WEATHER ROUNDUP
NATIONAL WEATHER SERVICE SALT LAKE CITY UT
800 PM MST SAT JAN 20 2018

UTZ001>011-023>025-210400-

NORTHERN UTAH

CITY           SKY/WX    TMP DP  RH WIND       PRES   REMARKS
BRIGHAM CITY   CLOUDY    31  20  62 NW9       29.95R WCI  23
HILL AFB       MOCLDY    29  21  73 NW13      29.91R WCI  19
LOGAN          CLOUDY    28  20  71 NW8       29.94R WCI  20
OGDEN          CLOUDY    30  22  72 N10       29.92R WCI  21
SALT LAKE CITY MOCLDY    34  26  72 NW13      29.94R WCI  25
TOOELE VALLEY  CLOUDY    30  27  86 W7        29.96S WCI  23
WENDOVER       MOCLDY    33  14  45 N18G24    30.00R WCI  22
HEBER CITY     CLOUDY    28  21  74 N9        29.85R WCI  20
WEST JORDAN    CLOUDY    29  26  86 NW12      29.94R WCI  20

$$

UTZ011>015-024>027-210400-

CENTRAL/NORTHEAST UTAH

CITY           SKY/WX    TMP DP  RH WIND       PRES   REMARKS
PROVO AIRPORT  CLOUDY    30  26  85 NW18      29.92S WCI  18
MOAB/CANYONLAN CLOUDY    38  36  92 SE3       29.70S
DELTA          CLOUDY    28  27  93 NW7       29.94S WCI  21
PRICE          PTCLDY    26  18  71 NW14      29.76R WCI  14
RICHFIELD      MOCLDY    27  27 100 CALM      29.91R FOG
ROOSEVELT      PTCLDY    30  21  69 CALM      29.76R
VERNAL         CLOUDY    30  26  85 E10       29.76S WCI  21

$$

UTZ013>016-019>022-027-210400-

SOUTHERN UTAH

CITY           SKY/WX    TMP DP  RH WIND       PRES   REMARKS
BRYCE CANYON   CLOUDY    19  16  88 NW16G25   29.78F WCI   4
CEDAR CITY     FLURRIES  23  21  92 N3        29.92R
MILFORD        LGT SNOW  25  24  96 N9        29.94S FOG     WCI  15
ST GEORGE      MOCLDY    39  28  64 S9        29.92S WCI  33
HANKSVILLE     CLOUDY    37  18  44 NW16G22   29.77R WCI  28
KANAB          CLOUDY    32  25  74 NW3       29.88R
BLANDING         N/A     32  32  99 CALM      29.85R

$$

REGIONAL REPORTS     COLORADO/ARIZONA

CITY           SKY/WX    TMP DP  RH WIND       PRES   REMARKS
CRAIG, CO      LGT SNOW  30  26  85 W22       29.73R VSB 3/4 WCI  17
GRAND JUNCTION LGT RAIN  36  35  96 N16       29.74R WCI  26
RIFLE, CO      LGT RAIN  37  35  92 W16G23    29.72R WCI  28
MONTROSE, CO   CLOUDY    39  34  82 W8        29.74R WCI  33
CORTEZ, CO     CLOUDY    33  31  92 SW5       29.80F WCI  29
COLORADO CITY    N/A     32  28  86 NW12G20   29.88R WCI  23
PAGE, AZ       LGT SNOW  39  29  67 W12G28    29.79R WCI  32
GRAND CANYON   LGT SNOW  27  25  92 SW7       29.82S VSB 1   WCI  19
KINGMAN, AZ    CLOUDY   N/A N/A N/A W13       29.97R
FLAGSTAFF, AZ  MOCLDY    25  18  74 W10       29.83R WCI  15

$$

REGIONAL REPORTS    NEVADA/IDAHO/WYOMING

CITY           SKY/WX    TMP DP  RH WIND       PRES   REMARKS
LAS VEGAS, NV  PTCLDY    47  29  49 N7        30.00R
ELY, NY        CLOUDY    20  16  84 N3        29.98R
ELKO, NV       CLOUDY    30  19  63 NW7       30.06R WCI  23
POCATELLO, ID  CLOUDY    32  23  69 NW10      30.00R WCI  24
BURLEY, ID     CLEAR     30  24  78 W9        30.01S WCI  22
FORT BRIDGER,  LGT SNOW  22  22 100 W7        29.84R WCI  13
EVANSTON, WY   CLOUDY    20  18  92 N16       29.82S FOG     WCI   6
ROCK SPRINGS,  LGT SNOW  22  18  85 N9        29.80R FOG     WCI  12

$$




USA.gov is the U.S. government's official web portal to all federal, state and local government web resources and services.